TimeEST,TemperatureF,Dew PointF,Humidity,Sea Level PressureIn,VisibilityMPH,Wind Direction,Wind SpeedMPH,Gust SpeedMPH,PrecipitationIn,Events,Conditions,WindDirDegrees,DateUTC
12:15 AM,60.8,55.4,82,29.96,10.0,South,5.8,-,N/A,,Overcast,180,2012-12-10 05:15:00
12:35 AM,60.8,55.4,82,29.97,10.0,SSW,8.1,-,N/A,,Overcast,200,2012-12-10 05:35:00
12:55 AM,60.8,55.4,82,29.95,10.0,SSW,5.8,-,N/A,,Overcast,200,2012-12-10 05:55:00
1:15 AM,60.8,55.4,82,29.95,10.0,South,5.8,-,N/A,,Overcast,180,2012-12-10 06:15:00
1:35 AM,60.8,55.4,82,29.93,10.0,South,5.8,-,N/A,,Overcast,170,2012-12-10 06:35:00
1:55 AM,60.8,57.2,88,29.92,10.0,South,6.9,-,N/A,,Overcast,170,2012-12-10 06:55:00
2:15 AM,60.8,57.2,88,29.92,10.0,South,5.8,-,N/A,,Overcast,180,2012-12-10 07:15:00
2:55 AM,60.8,59.0,94,29.91,10.0,South,6.9,-,N/A,Rain,Light Rain,170,2012-12-10 07:55:00
3:15 AM,60.8,59.0,94,29.91,10.0,South,5.8,-,N/A,,Overcast,190,2012-12-10 08:15:00
3:35 AM,60.8,59.0,94,29.90,10.0,South,5.8,-,N/A,,Overcast,180,2012-12-10 08:35:00
3:55 AM,60.8,59.0,94,29.89,10.0,South,8.1,-,N/A,,Overcast,180,2012-12-10 08:55:00
4:15 AM,60.8,59.0,94,29.88,10.0,South,5.8,-,N/A,,Overcast,180,2012-12-10 09:15:00
4:55 AM,60.8,59.0,94,29.87,10.0,South,6.9,-,N/A,,Overcast,190,2012-12-10 09:55:00
5:15 AM,62.6,59.0,88,29.86,10.0,South,3.5,-,N/A,,Overcast,180,2012-12-10 10:15:00
5:35 AM,62.6,60.8,94,29.85,10.0,South,5.8,-,N/A,,Overcast,180,2012-12-10 10:35:00
5:55 AM,62.6,60.8,94,29.85,10.0,South,4.6,-,N/A,,Overcast,190,2012-12-10 10:55:00
6:15 AM,62.6,60.8,94,29.85,10.0,South,8.1,-,N/A,,Overcast,190,2012-12-10 11:15:00
6:35 AM,64.4,60.8,88,29.85,10.0,SSW,9.2,-,N/A,,Overcast,210,2012-12-10 11:35:00
6:55 AM,64.4,60.8,88,29.85,10.0,SW,10.4,-,N/A,,Overcast,220,2012-12-10 11:55:00
7:15 AM,64.4,60.8,88,29.85,10.0,SSW,9.2,19.6,N/A,,Overcast,210,2012-12-10 12:15:00
7:35 AM,64.4,60.8,88,29.85,10.0,SSW,5.8,-,N/A,,Overcast,210,2012-12-10 12:35:00
7:55 AM,64.4,60.8,88,29.86,10.0,SW,10.4,16.1,N/A,,Overcast,220,2012-12-10 12:55:00
8:15 AM,64.4,59.0,83,29.85,10.0,SSW,10.4,17.3,N/A,,Overcast,210,2012-12-10 13:15:00
8:35 AM,64.4,59.0,83,29.85,10.0,SSW,8.1,18.4,N/A,,Overcast,210,2012-12-10 13:35:00
8:55 AM,64.4,60.8,88,29.85,10.0,SSW,8.1,-,N/A,,Overcast,210,2012-12-10 13:55:00
9:15 AM,64.4,60.8,88,29.84,10.0,SSW,6.9,-,N/A,Rain,Rain,200,2012-12-10 14:15:00
9:35 AM,62.6,60.8,94,29.84,10.0,SSW,6.9,-,N/A,Rain,Rain,210,2012-12-10 14:35:00
9:55 AM,64.4,60.8,88,29.84,10.0,SSW,8.1,-,N/A,,Overcast,200,2012-12-10 14:55:00
10:35 AM,64.4,60.8,88,29.82,10.0,South,6.9,-,N/A,Rain,Light Rain,170,2012-12-10 15:35:00
10:55 AM,62.6,60.8,94,29.82,5.0,SSW,6.9,-,N/A,Rain,Light Rain,200,2012-12-10 15:55:00
11:15 AM,62.6,60.8,94,29.82,10.0,WSW,4.6,-,N/A,,Drizzle,240,2012-12-10 16:15:00
11:35 AM,60.8,59.0,94,29.83,5.0,West,5.8,-,N/A,Rain,Heavy Rain,280,2012-12-10 16:35:00
11:55 AM,59.0,59.0,100,29.82,1.5,NW,8.1,17.3,N/A,Rain-Thunderstorm,Heavy Thunderstorms and Rain,310,2012-12-10 16:55:00
12:15 PM,59.0,59.0,100,29.83,7.0,SSW,3.5,-,N/A,Rain,Rain,200,2012-12-10 17:15:00
12:35 PM,59.0,59.0,100,29.80,5.0,Calm,Calm,-,N/A,Rain,Rain,0,2012-12-10 17:35:00
12:55 PM,59.0,59.0,100,29.80,4.0,Calm,Calm,-,N/A,Rain,Heavy Rain,0,2012-12-10 17:55:00
1:15 PM,59.0,59.0,100,29.80,5.0,SSW,3.5,-,N/A,Rain,Rain,210,2012-12-10 18:15:00
1:35 PM,59.0,59.0,100,29.79,5.0,Calm,Calm,-,N/A,Rain,Rain,0,2012-12-10 18:35:00
1:55 PM,60.8,59.0,94,29.78,7.0,Calm,Calm,-,N/A,Rain,Light Rain,0,2012-12-10 18:55:00
2:15 PM,60.8,59.0,94,29.77,4.0,Calm,Calm,-,N/A,Rain,Light Rain,0,2012-12-10 19:15:00
2:35 PM,60.8,59.0,94,29.76,10.0,Calm,Calm,-,N/A,Rain,Rain,0,2012-12-10 19:35:00
2:55 PM,60.8,59.0,94,29.77,10.0,SW,4.6,-,N/A,Rain,Light Rain,230,2012-12-10 19:55:00
3:15 PM,60.8,59.0,94,29.76,7.0,SSW,3.5,-,N/A,Rain,Light Rain,200,2012-12-10 20:15:00
3:35 PM,60.8,59.0,94,29.75,7.0,Calm,Calm,-,N/A,Rain,Light Rain,0,2012-12-10 20:35:00
3:55 PM,60.8,59.0,94,29.75,10.0,SSW,4.6,-,N/A,Rain,Light Rain,200,2012-12-10 20:55:00
4:15 PM,60.8,59.0,94,29.74,10.0,South,5.8,-,N/A,Rain,Rain,180,2012-12-10 21:15:00
4:35 PM,60.8,59.0,94,29.75,10.0,SW,6.9,-,N/A,,Light Drizzle,220,2012-12-10 21:35:00
4:55 PM,60.8,59.0,94,29.75,10.0,WSW,3.5,-,N/A,,Overcast,250,2012-12-10 21:55:00
5:15 PM,60.8,59.0,94,29.75,10.0,SW,4.6,-,N/A,,Overcast,220,2012-12-10 22:15:00
5:35 PM,60.8,59.0,94,29.75,10.0,SW,3.5,-,N/A,,Overcast,230,2012-12-10 22:35:00
5:55 PM,60.8,59.0,94,29.76,10.0,SW,5.8,-,N/A,,Overcast,220,2012-12-10 22:55:00
6:15 PM,60.8,59.0,94,29.76,10.0,SW,3.5,-,N/A,,Overcast,230,2012-12-10 23:15:00
6:35 PM,60.8,59.0,94,29.77,10.0,WSW,3.5,-,N/A,,Overcast,240,2012-12-10 23:35:00
6:55 PM,60.8,59.0,94,29.76,10.0,WSW,3.5,-,N/A,,Overcast,240,2012-12-10 23:55:00
7:15 PM,60.8,59.0,94,29.76,10.0,Calm,Calm,-,N/A,,Overcast,0,2012-12-11 00:15:00
7:35 PM,60.8,59.0,94,29.77,10.0,Calm,Calm,-,N/A,,Overcast,0,2012-12-11 00:35:00
7:55 PM,59.0,57.2,94,29.79,10.0,NW,12.7,20.7,N/A,,Overcast,310,2012-12-11 00:55:00
8:15 PM,57.2,55.4,94,29.81,10.0,NW,9.2,-,N/A,,Overcast,310,2012-12-11 01:15:00
8:35 PM,53.6,53.6,100,29.82,10.0,NW,8.1,-,N/A,,Overcast,310,2012-12-11 01:35:00
8:55 PM,53.6,51.8,94,29.83,10.0,NNW,11.5,17.3,N/A,,Overcast,330,2012-12-11 01:55:00
9:15 PM,50.0,50.0,100,29.85,5.0,NW,13.8,18.4,N/A,,Overcast,320,2012-12-11 02:15:00
9:35 PM,50.0,46.4,87,29.86,7.0,NW,10.4,19.6,N/A,,Overcast,320,2012-12-11 02:35:00
9:55 PM,48.2,46.4,93,29.87,10.0,NW,8.1,-,N/A,,Overcast,320,2012-12-11 02:55:00
10:15 PM,48.2,44.6,87,29.88,10.0,NW,6.9,-,N/A,,Overcast,310,2012-12-11 03:15:00
10:35 PM,46.4,44.6,93,29.89,10.0,NW,8.1,-,N/A,,Overcast,310,2012-12-11 03:35:00
10:55 PM,46.4,44.6,93,29.89,10.0,NW,5.8,-,N/A,,Overcast,310,2012-12-11 03:55:00
11:15 PM,46.4,44.6,93,29.90,10.0,NW,5.8,-,N/A,,Overcast,320,2012-12-11 04:15:00
11:35 PM,46.4,42.8,87,29.90,10.0,NNW,11.5,-,N/A,,Overcast,330,2012-12-11 04:35:00
11:55 PM,44.6,42.8,93,29.90,10.0,NW,11.5,-,N/A,,Overcast,320,2012-12-11 04:55:00